,,,PA_Meas_PMT16A,,PR_Meas_QMR101_102,,RH_Meas_QMH101,,SR_Meas_QMS101,,TA_Meas_QMH101,,GenWind,,GenWind,
date,time,status,PA,status,PR,status,RH,status,SR,status,TA,status,DirAvg,status,SpdAvg,
2010-10-20, 00:00:04,VALID,1001.16,VALID,0,VALID,89.9609,VALID,0,VALID,24.7142,VALID,298,VALID,0.250391,
2010-10-20, 00:01:04,VALID,1001.13,VALID,0,VALID,90.06,VALID,0,VALID,24.6751,VALID,298,VALID,0.427344,
2010-10-20, 00:02:04,VALID,1001.13,VALID,0,VALID,90.1592,VALID,0.112286,VALID,24.6537,VALID,298,VALID,0.389453,
2010-10-20, 00:03:04,VALID,1001.11,VALID,0,VALID,90.2737,VALID,0,VALID,24.6556,VALID,298,VALID,0.190234,
2010-10-20, 00:04:04,VALID,1001.09,VALID,0,VALID,90.4034,VALID,0,VALID,24.6556,VALID,298,VALID,0.234766,
2010-10-20, 00:05:04,VALID,1001.11,VALID,0,VALID,90.411,VALID,0,VALID,24.6166,VALID,298,VALID,0.471484,
2010-10-20, 00:06:04,VALID,1001.1,VALID,0,VALID,90.4034,VALID,0,VALID,24.6361,VALID,298,VALID,0.237109,
2010-10-20, 00:07:04,VALID,1001.11,VALID,0,VALID,90.3652,VALID,0,VALID,24.6361,VALID,298,VALID,0.315234,
2010-10-20, 00:08:04,VALID,1001.09,VALID,0,VALID,90.4263,VALID,0,VALID,24.6556,VALID,200,VALID,0.554297,
2010-10-20, 00:09:04,VALID,1001.13,VALID,0,VALID,90.4644,VALID,0,VALID,24.6946,VALID,315,VALID,1.3418,
2010-10-20, 00:10:04,VALID,1001.18,VALID,0,VALID,90.4873,VALID,0,VALID,24.8117,VALID,260,VALID,1.05898,
2010-10-20, 00:11:04,VALID,1001.25,VALID,0,VALID,89.793,VALID,0,VALID,24.9289,VALID,249,VALID,2.49531,
2010-10-20, 00:12:04,VALID,1001.26,VALID,0,VALID,88.2594,VALID,0,VALID,25.1045,VALID,235,VALID,2.15273,
2010-10-20, 00:13:04,VALID,1001.26,VALID,0,VALID,87.321,VALID,0,VALID,25.1826,VALID,259,VALID,1.21094,
2010-10-20, 00:14:04,VALID,1001.23,VALID,0,VALID,86.0163,VALID,0,VALID,25.2217,VALID,279,VALID,1.34219,
2010-10-20, 00:15:04,VALID,1001.24,VALID,0,VALID,85.3983,VALID,0,VALID,25.2217,VALID,231,VALID,2.68242,
2010-10-20, 00:16:04,VALID,1001.25,VALID,0,VALID,85.0932,VALID,0,VALID,25.2607,VALID,271,VALID,1.58711,
2010-10-20, 00:17:04,VALID,1001.24,VALID,0,VALID,84.5896,VALID,0,VALID,25.2802,VALID,273,VALID,1.67617,
2010-10-20, 00:18:04,VALID,1001.22,VALID,0,VALID,84.0784,VALID,0,VALID,25.2802,VALID,256,VALID,2.63164,
2010-10-20, 00:19:04,VALID,1001.22,VALID,0,VALID,84.2844,VALID,0.112286,VALID,25.2588,VALID,257,VALID,2.01992,
2010-10-20, 00:20:04,VALID,1001.21,VALID,0,VALID,84.5362,VALID,0,VALID,25.2607,VALID,291,VALID,1.26445,
2010-10-20, 00:21:04,VALID,1001.21,VALID,0,VALID,85.1923,VALID,0,VALID,25.2412,VALID,344,VALID,1.28359,
2010-10-20, 00:22:04,VALID,1001.22,VALID,0,VALID,84.9787,VALID,0.112286,VALID,25.1826,VALID,295,VALID,1.30977,
2010-10-20, 00:23:04,VALID,1001.21,VALID,0,VALID,85.2381,VALID,0,VALID,25.1631,VALID,309,VALID,1.56328,
2010-10-20, 00:24:04,VALID,1001.19,VALID,0,VALID,85.4517,VALID,0,VALID,25.1241,VALID,326,VALID,0.787891,
2010-10-20, 00:25:04,VALID,1001.15,VALID,0,VALID,85.7646,VALID,0,VALID,25.1045,VALID,342,VALID,1.11328,
2010-10-20, 00:26:04,VALID,1001.11,VALID,0,VALID,86.085,VALID,0,VALID,25.085,VALID,309,VALID,1.93281,
2010-10-20, 00:27:04,VALID,1001.09,VALID,0,VALID,86.4665,VALID,0,VALID,25.085,VALID,337,VALID,0.992969,
2010-10-20, 00:28:04,VALID,1001.04,VALID,0,VALID,85.673,VALID,0,VALID,25.046,VALID,344,VALID,1.80977,
2010-10-20, 00:29:04,VALID,1001.04,VALID,0,VALID,85.5815,VALID,0,VALID,25.0655,VALID,286,VALID,1.27422,
2010-10-20, 00:30:04,VALID,1001.03,VALID,0,VALID,86.0545,VALID,0,VALID,25.0655,VALID,303,VALID,0.737891,
2010-10-20, 00:31:04,VALID,1001.03,VALID,0,VALID,85.5815,VALID,0.112286,VALID,25.046,VALID,297,VALID,1.36641,
2010-10-20, 00:32:04,VALID,1001.07,VALID,0,VALID,85.6425,VALID,0.112286,VALID,25.0246,VALID,326,VALID,1.50352,
2010-10-20, 00:33:04,VALID,1001.09,VALID,0,VALID,85.1389,VALID,0,VALID,25.0265,VALID,325,VALID,1.72148,
2010-10-20, 00:34:04,VALID,1001.13,VALID,0,VALID,85.2076,VALID,0,VALID,24.9855,VALID,343,VALID,1.11055,
2010-10-20, 00:35:04,VALID,1001.15,VALID,0,VALID,85.1618,VALID,0,VALID,24.9874,VALID,339,VALID,1.4625,
2010-10-20, 00:36:04,VALID,1001.16,VALID,0,VALID,85.8332,VALID,0,VALID,24.9679,VALID,306,VALID,0.480859,
2010-10-20, 00:37:04,VALID,1001.13,VALID,0,VALID,85.3068,VALID,0,VALID,24.9484,VALID,289,VALID,0.346094,
2010-10-20, 00:38:04,VALID,1001.13,VALID,0,VALID,85.5738,VALID,0,VALID,24.8879,VALID,284,VALID,0.271875,
2010-10-20, 00:39:04,VALID,1001.1,VALID,0,VALID,85.6196,VALID,0.112286,VALID,24.8898,VALID,284,VALID,0.310156,
2010-10-20, 00:40:04,VALID,1001.05,VALID,0,VALID,85.2076,VALID,0.112286,VALID,24.8508,VALID,320,VALID,1.31016,
2010-10-20, 00:41:04,VALID,1001.04,VALID,0,VALID,85.2076,VALID,0,VALID,24.8313,VALID,314,VALID,1.22305,
2010-10-20, 00:42:04,VALID,1001.04,VALID,0,VALID,85.0932,VALID,0,VALID,24.8313,VALID,347,VALID,1.02695,
2010-10-20, 00:43:04,VALID,1001.07,VALID,0,VALID,85.4212,VALID,0,VALID,24.8117,VALID,347,VALID,0.540234,
2010-10-20, 00:44:04,VALID,1001.05,VALID,0,VALID,85.2992,VALID,0,VALID,24.8117,VALID,2,VALID,1.63516,
2010-10-20, 00:45:04,VALID,1001.03,VALID,0,VALID,85.1618,VALID,0,VALID,24.7922,VALID,14,VALID,1.13906,
2010-10-20, 00:46:04,VALID,1001,VALID,0,VALID,85.4289,VALID,0,VALID,24.7922,VALID,18,VALID,1.30977,
2010-10-20, 00:47:04,VALID,1000.98,VALID,0,VALID,85.6196,VALID,0.112286,VALID,24.7727,VALID,19,VALID,1.09844,
2010-10-20, 00:48:04,VALID,1000.99,VALID,0,VALID,85.7035,VALID,0,VALID,24.7532,VALID,8,VALID,1.57578,
2010-10-20, 00:49:04,VALID,1001,VALID,0,VALID,84.9787,VALID,0,VALID,24.7337,VALID,359,VALID,1.37148,
2010-10-20, 00:50:04,VALID,1001,VALID,0,VALID,85.3373,VALID,0,VALID,24.7337,VALID,18,VALID,1.35703,
2010-10-20, 00:51:04,VALID,1000.98,VALID,0,VALID,85.6196,VALID,0,VALID,24.7123,VALID,11,VALID,1.20078,
2010-10-20, 00:52:04,VALID,1000.96,VALID,0,VALID,85.6959,VALID,0,VALID,24.6946,VALID,18,VALID,0.884375,
2010-10-20, 00:53:04,VALID,1000.97,VALID,0,VALID,85.1923,VALID,0.112286,VALID,24.6556,VALID,4,VALID,0.978125,
2010-10-20, 00:54:04,VALID,1000.98,VALID,0,VALID,85.5128,VALID,0,VALID,24.6556,VALID,12,VALID,0.627734,
2010-10-20, 00:55:04,VALID,1000.96,VALID,0,VALID,85.5204,VALID,0,VALID,24.6556,VALID,12,VALID,0.559375,
2010-10-20, 00:56:04,VALID,1000.93,VALID,0,VALID,85.3526,VALID,0,VALID,24.6361,VALID,12,VALID,0.428906,
2010-10-20, 00:57:04,VALID,1000.92,VALID,0,VALID,85.2305,VALID,0.112286,VALID,24.6166,VALID,12,VALID,0.337891,
2010-10-20, 00:58:04,VALID,1000.9,VALID,0,VALID,84.8261,VALID,0,VALID,24.6166,VALID,12,VALID,0.431641,
2010-10-20, 00:59:04,VALID,1000.87,VALID,0,VALID,84.437,VALID,0,VALID,24.6361,VALID,339,VALID,0.319531,
2010-10-20, 01:00:04,VALID,1000.86,VALID,0,VALID,84.4828,VALID,0,VALID,24.6556,VALID,339,VALID,0.201172,
2010-10-20, 01:01:04,VALID,1000.87,VALID,0,VALID,84.7346,VALID,0,VALID,24.6556,VALID,339,VALID,0.24375,
2010-10-20, 01:02:04,VALID,1000.86,VALID,0,VALID,85.0932,VALID,0.112286,VALID,24.6556,VALID,339,VALID,0.314453,
2010-10-20, 01:03:04,VALID,1000.88,VALID,0,VALID,85.3449,VALID,0,VALID,24.6556,VALID,339,VALID,0.36875,
2010-10-20, 01:04:04,VALID,1000.87,VALID,0,VALID,85.4899,VALID,0,VALID,24.6751,VALID,339,VALID,0.439453,
2010-10-20, 01:05:04,VALID,1000.89,VALID,0,VALID,85.9477,VALID,0,VALID,24.6751,VALID,339,VALID,0.446484,
2010-10-20, 01:06:04,VALID,1000.84,VALID,0,VALID,86.1155,VALID,0,VALID,24.6556,VALID,344,VALID,0.610156,
2010-10-20, 01:07:04,VALID,1000.86,VALID,0,VALID,86.4817,VALID,0,VALID,24.6556,VALID,147,VALID,0.762109,
2010-10-20, 01:08:04,VALID,1000.84,VALID,0,VALID,86.5962,VALID,0,VALID,24.5971,VALID,161,VALID,1.12656,
2010-10-20, 01:09:04,VALID,1000.78,VALID,0,VALID,86.6801,VALID,0,VALID,24.5775,VALID,171,VALID,1.15781,
2010-10-20, 01:10:04,VALID,1000.76,VALID,0,VALID,86.9319,VALID,0,VALID,24.5971,VALID,170,VALID,1.20195,
2010-10-20, 01:11:04,VALID,1000.71,VALID,0,VALID,86.8098,VALID,0,VALID,24.5775,VALID,165,VALID,1.2457,
2010-10-20, 01:12:04,VALID,1000.68,VALID,0,VALID,86.7335,VALID,0,VALID,24.5775,VALID,170,VALID,1.28711,
2010-10-20, 01:13:04,VALID,1000.66,VALID,0,VALID,86.3368,VALID,0,VALID,24.5775,VALID,157,VALID,1.65703,
2010-10-20, 01:14:04,VALID,1000.67,VALID,0,VALID,86.2071,VALID,0,VALID,24.6166,VALID,163,VALID,1.48984,
2010-10-20, 01:15:04,VALID,1000.63,VALID,0,VALID,86.0011,VALID,0,VALID,24.6166,VALID,152,VALID,1.53906,
2010-10-20, 01:16:04,VALID,1000.63,VALID,0,VALID,85.8409,VALID,0,VALID,24.6166,VALID,144,VALID,1.525,
2010-10-20, 01:17:04,VALID,1000.62,VALID,0,VALID,86.0469,VALID,0,VALID,24.6166,VALID,140,VALID,1.69219,
2010-10-20, 01:18:04,VALID,1000.65,VALID,0,VALID,86.4665,VALID,0.112286,VALID,24.6166,VALID,141,VALID,1.38203,
2010-10-20, 01:19:04,VALID,1000.61,VALID,0,VALID,86.8022,VALID,0.112286,VALID,24.5775,VALID,149,VALID,1.46563,
2010-10-20, 01:20:04,VALID,1000.63,VALID,0,VALID,87.0082,VALID,0,VALID,24.5171,VALID,149,VALID,1.20078,
2010-10-20, 01:21:04,VALID,1000.59,VALID,0,VALID,87.2142,VALID,0,VALID,24.4995,VALID,145,VALID,1.29688,
2010-10-20, 01:22:04,VALID,1000.55,VALID,0,VALID,87.3439,VALID,0,VALID,24.48,VALID,148,VALID,1.36445,
2010-10-20, 01:23:04,VALID,1000.53,VALID,0,VALID,87.3439,VALID,0,VALID,24.4391,VALID,136,VALID,0.9375,
2010-10-20, 01:24:04,VALID,1000.49,VALID,0,VALID,87.3134,VALID,0,VALID,24.4409,VALID,118,VALID,1.10859,
2010-10-20, 01:25:04,VALID,1000.47,VALID,0,VALID,87.5651,VALID,0,VALID,24.4019,VALID,112,VALID,1.16328,
2010-10-20, 01:26:04,VALID,1000.47,VALID,0,VALID,87.7101,VALID,0,VALID,24.4019,VALID,104,VALID,0.925,
2010-10-20, 01:27:04,VALID,1000.43,VALID,0,VALID,87.5804,VALID,0.112286,VALID,24.4019,VALID,92,VALID,0.969141,
2010-10-20, 01:28:04,VALID,1000.41,VALID,0,VALID,87.5651,VALID,0,VALID,24.3433,VALID,91,VALID,1.27773,
2010-10-20, 01:29:04,VALID,1000.4,VALID,0,VALID,87.8017,VALID,0,VALID,24.3043,VALID,94,VALID,1.21367,
2010-10-20, 01:30:04,VALID,1000.42,VALID,0,VALID,88.1526,VALID,0,VALID,24.2263,VALID,78,VALID,1.11367,
2010-10-20, 01:31:04,VALID,1000.36,VALID,0,VALID,88.6409,VALID,0.112286,VALID,24.2263,VALID,79,VALID,0.779688,
2010-10-20, 01:32:04,VALID,1000.36,VALID,0,VALID,88.908,VALID,0,VALID,24.1677,VALID,86,VALID,0.910547,
2010-10-20, 01:33:04,VALID,1000.34,VALID,0,VALID,89.0682,VALID,0,VALID,24.1287,VALID,90,VALID,0.730469,
2010-10-20, 01:34:04,VALID,1000.35,VALID,0,VALID,89.1674,VALID,0,VALID,24.0701,VALID,106,VALID,1.02695,
2010-10-20, 01:35:04,VALID,1000.39,VALID,0,VALID,89.1979,VALID,0,VALID,24.0506,VALID,104,VALID,1.07344,
2010-10-20, 01:36:04,VALID,1000.37,VALID,0,VALID,89.175,VALID,0.112286,VALID,24.0116,VALID,106,VALID,1.22109,
2010-10-20, 01:37:04,VALID,1000.37,VALID,0,VALID,89.2284,VALID,0,VALID,23.9726,VALID,122,VALID,0.961719,
2010-10-20, 01:38:04,VALID,1000.33,VALID,0,VALID,89.3352,VALID,0,VALID,23.9531,VALID,113,VALID,1.18438,
2010-10-20, 01:39:04,VALID,1000.35,VALID,0,VALID,89.5336,VALID,0,VALID,23.9531,VALID,110,VALID,1.14844,
2010-10-20, 01:40:04,VALID,1000.31,VALID,0,VALID,89.6251,VALID,0,VALID,23.9336,VALID,109,VALID,0.997656,
2010-10-20, 01:41:04,VALID,1000.3,VALID,0,VALID,89.648,VALID,0,VALID,23.9354,VALID,109,VALID,0.792188,
2010-10-20, 01:42:04,VALID,1000.24,VALID,0,VALID,89.8617,VALID,0,VALID,23.914,VALID,116,VALID,1.05586,
2010-10-20, 01:43:04,VALID,1000.2,VALID,0,VALID,89.9227,VALID,0,VALID,23.8945,VALID,126,VALID,0.558984,
2010-10-20, 01:44:04,VALID,1000.15,VALID,0,VALID,89.9532,VALID,0,VALID,23.8945,VALID,126,VALID,0.836719,
2010-10-20, 01:45:04,VALID,1000.09,VALID,0,VALID,89.9532,VALID,0.112286,VALID,23.8963,VALID,156,VALID,0.776563,
2010-10-20, 01:46:04,VALID,1000.02,VALID,0,VALID,90.0677,VALID,0,VALID,23.875,VALID,153,VALID,1.02422,
2010-10-20, 01:47:04,VALID,1000.01,VALID,0,VALID,90.1516,VALID,0.112286,VALID,23.875,VALID,152,VALID,0.719141,
2010-10-20, 01:48:04,VALID,999.996,VALID,0,VALID,90.2355,VALID,0,VALID,23.914,VALID,150,VALID,1.08477,
2010-10-20, 01:49:04,VALID,999.956,VALID,0,VALID,90.1592,VALID,0,VALID,23.914,VALID,134,VALID,0.863281,
2010-10-20, 01:50:04,VALID,999.958,VALID,0,VALID,90.1134,VALID,0,VALID,23.914,VALID,135,VALID,0.73125,
2010-10-20, 01:51:04,VALID,999.958,VALID,0,VALID,90.0371,VALID,0,VALID,23.8945,VALID,135,VALID,0.764844,
2010-10-20, 01:52:04,VALID,999.91,VALID,0,VALID,90.0219,VALID,0,VALID,23.875,VALID,133,VALID,1.0168,
2010-10-20, 01:53:04,VALID,999.889,VALID,0,VALID,90.1058,VALID,0,VALID,23.875,VALID,124,VALID,1.10781,
2010-10-20, 01:54:04,VALID,999.858,VALID,0,VALID,90.1821,VALID,0,VALID,23.8555,VALID,126,VALID,1.09766,
2010-10-20, 01:55:04,VALID,999.841,VALID,0,VALID,90.1897,VALID,0,VALID,23.8555,VALID,125,VALID,0.911328,
2010-10-20, 01:56:04,VALID,999.804,VALID,0,VALID,90.205,VALID,0,VALID,23.836,VALID,121,VALID,0.8375,
2010-10-20, 01:57:04,VALID,999.781,VALID,0,VALID,90.2508,VALID,0,VALID,23.836,VALID,120,VALID,0.671094,
2010-10-20, 01:58:04,VALID,999.754,VALID,0,VALID,90.3118,VALID,0.112286,VALID,23.8165,VALID,102,VALID,0.930469,
2010-10-20, 01:59:04,VALID,999.694,VALID,0,VALID,90.4568,VALID,0.112286,VALID,23.8165,VALID,114,VALID,0.831641,
2010-10-20, 02:00:04,VALID,999.683,VALID,0,VALID,90.5483,VALID,0,VALID,23.797,VALID,128,VALID,0.896484,
2010-10-20, 02:01:04,VALID,999.65,VALID,0,VALID,90.6704,VALID,0,VALID,23.7775,VALID,128,VALID,0.882422,
2010-10-20, 02:02:04,VALID,999.615,VALID,0,VALID,90.7925,VALID,0,VALID,23.7775,VALID,128,VALID,0.870703,
2010-10-20, 02:03:04,VALID,999.619,VALID,0,VALID,90.823,VALID,0,VALID,23.7579,VALID,128,VALID,0.745703,
2010-10-20, 02:04:04,VALID,999.616,VALID,0,VALID,90.8764,VALID,0.112286,VALID,23.7579,VALID,128,VALID,0.707812,
2010-10-20, 02:05:04,VALID,999.61,VALID,0,VALID,90.823,VALID,0,VALID,23.7384,VALID,128,VALID,0.760156,
2010-10-20, 02:06:04,VALID,999.612,VALID,0,VALID,90.7543,VALID,0,VALID,23.7189,VALID,128,VALID,0.646094,
2010-10-20, 02:07:04,VALID,999.624,VALID,0,VALID,90.6246,VALID,0.112286,VALID,23.7384,VALID,128,VALID,0.508984,
2010-10-20, 02:08:04,VALID,999.611,VALID,0,VALID,90.5712,VALID,0,VALID,23.7207,VALID,128,VALID,0.638672,
2010-10-20, 02:09:04,VALID,999.628,VALID,0,VALID,90.6246,VALID,0,VALID,23.7207,VALID,100,VALID,0.844531,
2010-10-20, 02:10:04,VALID,999.614,VALID,0,VALID,90.6323,VALID,0,VALID,23.7012,VALID,96,VALID,0.892578,
2010-10-20, 02:11:04,VALID,999.611,VALID,0,VALID,90.5865,VALID,0,VALID,23.7012,VALID,88,VALID,0.950391,
2010-10-20, 02:12:04,VALID,999.606,VALID,0,VALID,90.5331,VALID,0,VALID,23.6622,VALID,88,VALID,0.872656,
2010-10-20, 02:13:04,VALID,999.617,VALID,0,VALID,90.5712,VALID,0,VALID,23.6427,VALID,88,VALID,0.648828,
2010-10-20, 02:14:04,VALID,999.615,VALID,0,VALID,90.6475,VALID,0,VALID,23.6427,VALID,88,VALID,0.664844,
2010-10-20, 02:15:04,VALID,999.611,VALID,0,VALID,90.6704,VALID,0,VALID,23.6427,VALID,88,VALID,0.294141,
2010-10-20, 02:16:04,VALID,999.578,VALID,0,VALID,90.6628,VALID,0,VALID,23.6232,VALID,88,VALID,0.339063,
2010-10-20, 02:17:04,VALID,999.59,VALID,0,VALID,90.6094,VALID,0,VALID,23.6036,VALID,88,VALID,0.297656,
2010-10-20, 02:18:04,VALID,999.58,VALID,0,VALID,90.6246,VALID,0,VALID,23.5646,VALID,88,VALID,0.210938,
2010-10-20, 02:19:04,VALID,999.594,VALID,0,VALID,90.6628,VALID,0,VALID,23.5451,VALID,88,VALID,0.294922,
2010-10-20, 02:20:04,VALID,999.585,VALID,0,VALID,90.7314,VALID,0,VALID,23.5256,VALID,67,VALID,0.515625,
2010-10-20, 02:21:04,VALID,999.575,VALID,0,VALID,90.7772,VALID,0,VALID,23.5061,VALID,52,VALID,0.342187,
2010-10-20, 02:22:04,VALID,999.553,VALID,0,VALID,90.762,VALID,0,VALID,23.4866,VALID,52,VALID,0.241406,
2010-10-20, 02:23:04,VALID,999.557,VALID,0,VALID,90.8383,VALID,0,VALID,23.4475,VALID,52,VALID,0.0410156,
2010-10-20, 02:24:04,VALID,999.538,VALID,0,VALID,90.8383,VALID,0,VALID,23.428,VALID,52,VALID,0.186328,
2010-10-20, 02:25:04,VALID,999.479,VALID,0,VALID,90.9451,VALID,0,VALID,23.4085,VALID,52,VALID,0.0972656,
2010-10-20, 02:26:04,VALID,999.434,VALID,0,VALID,91.1358,VALID,0,VALID,23.389,VALID,52,VALID,0.251953,
2010-10-20, 02:27:04,VALID,999.411,VALID,0,VALID,91.2426,VALID,0,VALID,23.389,VALID,52,VALID,0.352734,
2010-10-20, 02:28:04,VALID,999.395,VALID,0,VALID,91.3113,VALID,0,VALID,23.4085,VALID,61,VALID,0.59375,
2010-10-20, 02:29:04,VALID,999.376,VALID,0,VALID,91.3494,VALID,0,VALID,23.428,VALID,89,VALID,0.574609,
2010-10-20, 02:30:04,VALID,999.365,VALID,0,VALID,91.3113,VALID,0,VALID,23.4475,VALID,89,VALID,0.342578,
2010-10-20, 02:31:04,VALID,999.325,VALID,0,VALID,91.1816,VALID,0,VALID,23.4671,VALID,89,VALID,0,
2010-10-20, 02:32:04,VALID,999.353,VALID,0,VALID,91.0366,VALID,0,VALID,23.4475,VALID,89,VALID,0,
2010-10-20, 02:33:04,VALID,999.304,VALID,0,VALID,90.8993,VALID,0,VALID,23.4085,VALID,89,VALID,0.320313,
2010-10-20, 02:34:04,VALID,999.291,VALID,0,VALID,90.9146,VALID,0,VALID,23.4085,VALID,89,VALID,0.157031,
2010-10-20, 02:35:04,VALID,999.269,VALID,0,VALID,91.0443,VALID,0,VALID,23.4085,VALID,89,VALID,0.335938,
2010-10-20, 02:36:04,VALID,999.21,VALID,0,VALID,91.0443,VALID,0,VALID,23.3695,VALID,89,VALID,0.251172,
2010-10-20, 02:37:04,VALID,999.198,VALID,0,VALID,91.0671,VALID,0,VALID,23.3305,VALID,89,VALID,0.232422,
2010-10-20, 02:38:04,VALID,999.146,VALID,0,VALID,91.09,VALID,0.112286,VALID,23.3092,VALID,89,VALID,0.353516,
2010-10-20, 02:39:04,VALID,999.089,VALID,0,VALID,91.174,VALID,0,VALID,23.2897,VALID,115,VALID,0.7875,
2010-10-20, 02:40:04,VALID,999.056,VALID,0,VALID,91.3113,VALID,0.112286,VALID,23.2897,VALID,118,VALID,1.29219,
2010-10-20, 02:41:04,VALID,999.039,VALID,0,VALID,91.4181,VALID,0,VALID,23.3092,VALID,115,VALID,1.46641,
2010-10-20, 02:42:04,VALID,999.031,VALID,0,VALID,91.4486,VALID,0,VALID,23.3092,VALID,116,VALID,1.08867,
2010-10-20, 02:43:04,VALID,999.036,VALID,0,VALID,91.4868,VALID,0,VALID,23.3287,VALID,116,VALID,0.807813,
2010-10-20, 02:44:04,VALID,999.06,VALID,0,VALID,91.5249,VALID,0,VALID,23.3287,VALID,113,VALID,0.408594,
2010-10-20, 02:45:04,VALID,999.053,VALID,0,VALID,91.5097,VALID,0,VALID,23.3074,VALID,113,VALID,0.290625,
2010-10-20, 02:46:04,VALID,999.039,VALID,0,VALID,91.5097,VALID,0.112286,VALID,23.3092,VALID,113,VALID,0.315234,
2010-10-20, 02:47:04,VALID,999.018,VALID,0,VALID,91.4868,VALID,0.112286,VALID,23.2897,VALID,113,VALID,0.229687,
2010-10-20, 02:48:04,VALID,999.046,VALID,0,VALID,91.4639,VALID,0,VALID,23.2702,VALID,113,VALID,0.162891,
2010-10-20, 02:49:04,VALID,999.016,VALID,0,VALID,91.4868,VALID,0,VALID,23.2312,VALID,113,VALID,0.412109,
2010-10-20, 02:50:04,VALID,999.012,VALID,0,VALID,91.441,VALID,0,VALID,23.1709,VALID,113,VALID,0.316797,
2010-10-20, 02:51:04,VALID,999,VALID,0,VALID,91.4944,VALID,0,VALID,23.1726,VALID,113,VALID,0.292578,
2010-10-20, 02:52:04,VALID,999,VALID,0,VALID,91.6317,VALID,0,VALID,23.1921,VALID,113,VALID,0.400391,
2010-10-20, 02:53:04,VALID,998.982,VALID,0,VALID,91.7538,VALID,0,VALID,23.1744,VALID,113,VALID,0.318359,
2010-10-20, 02:54:04,VALID,998.958,VALID,0,VALID,91.8072,VALID,0,VALID,23.1549,VALID,113,VALID,0.196484,
2010-10-20, 02:55:04,VALID,998.935,VALID,0,VALID,91.9064,VALID,0,VALID,23.1549,VALID,113,VALID,0.366406,
2010-10-20, 02:56:04,VALID,998.944,VALID,0,VALID,92.0132,VALID,0,VALID,23.1354,VALID,113,VALID,0.455469,
2010-10-20, 02:57:04,VALID,998.933,VALID,0,VALID,92.0437,VALID,0,VALID,23.1354,VALID,113,VALID,0.422656,
2010-10-20, 02:58:04,VALID,998.932,VALID,0,VALID,92.0132,VALID,0,VALID,23.0769,VALID,113,VALID,0.508594,
2010-10-20, 02:59:04,VALID,998.935,VALID,0,VALID,92.0285,VALID,0,VALID,23.0573,VALID,46,VALID,0.690625,
2010-10-20, 03:00:04,VALID,998.933,VALID,0,VALID,92.1353,VALID,0,VALID,23.0769,VALID,42,VALID,0.700781,
2010-10-20, 03:01:04,VALID,998.936,VALID,0,VALID,92.1887,VALID,0,VALID,23.0964,VALID,42,VALID,0.588672,
2010-10-20, 03:02:04,VALID,998.912,VALID,0,VALID,92.2192,VALID,0,VALID,23.1159,VALID,42,VALID,0.631641,
2010-10-20, 03:03:04,VALID,998.906,VALID,0,VALID,92.1811,VALID,0,VALID,23.0964,VALID,42,VALID,0.622656,
2010-10-20, 03:04:04,VALID,998.909,VALID,0,VALID,92.0895,VALID,0,VALID,23.0786,VALID,28,VALID,0.748828,
2010-10-20, 03:05:04,VALID,998.904,VALID,0,VALID,91.9903,VALID,0,VALID,23.0378,VALID,13,VALID,0.997266,
2010-10-20, 03:06:04,VALID,998.867,VALID,0,VALID,91.9827,VALID,0,VALID,23.0573,VALID,11,VALID,1.22109,
2010-10-20, 03:07:04,VALID,998.868,VALID,0,VALID,91.9903,VALID,0,VALID,23.0769,VALID,351,VALID,0.842578,
2010-10-20, 03:08:04,VALID,998.851,VALID,0,VALID,91.8911,VALID,0,VALID,23.0751,VALID,351,VALID,0.594141,
2010-10-20, 03:09:04,VALID,998.847,VALID,0,VALID,91.7691,VALID,0,VALID,23.0166,VALID,351,VALID,0.486719,
2010-10-20, 03:10:04,VALID,998.832,VALID,0,VALID,91.7004,VALID,0.112286,VALID,23.0166,VALID,351,VALID,0.460547,
2010-10-20, 03:11:04,VALID,998.784,VALID,0,VALID,91.7004,VALID,0,VALID,22.9776,VALID,351,VALID,0.746875,
2010-10-20, 03:12:04,VALID,998.74,VALID,0,VALID,91.7614,VALID,0,VALID,22.9776,VALID,351,VALID,0.716016,
2010-10-20, 03:13:04,VALID,998.752,VALID,0,VALID,91.8072,VALID,0,VALID,22.9776,VALID,351,VALID,0.676562,
2010-10-20, 03:14:04,VALID,998.739,VALID,0,VALID,91.8377,VALID,0,VALID,22.9385,VALID,27,VALID,0.784375,
2010-10-20, 03:15:04,VALID,998.74,VALID,0,VALID,91.8911,VALID,0,VALID,22.919,VALID,42,VALID,0.705859,
2010-10-20, 03:16:04,VALID,998.715,VALID,0,VALID,91.9369,VALID,0.112286,VALID,22.8995,VALID,42,VALID,0.682031,
2010-10-20, 03:17:04,VALID,998.744,VALID,0,VALID,91.9522,VALID,0,VALID,22.88,VALID,42,VALID,0.589844,
2010-10-20, 03:18:04,VALID,998.716,VALID,0,VALID,91.9751,VALID,0,VALID,22.8605,VALID,42,VALID,0.435937,
2010-10-20, 03:19:04,VALID,998.694,VALID,0,VALID,91.9827,VALID,0.112286,VALID,22.8003,VALID,42,VALID,0.141406,
2010-10-20, 03:20:04,VALID,998.699,VALID,0,VALID,91.9827,VALID,0,VALID,22.7825,VALID,42,VALID,0,
2010-10-20, 03:21:04,VALID,998.713,VALID,0,VALID,91.9751,VALID,0.112286,VALID,22.7435,VALID,42,VALID,0,
2010-10-20, 03:22:04,VALID,998.712,VALID,0,VALID,92.0132,VALID,0,VALID,22.7435,VALID,42,VALID,0,
2010-10-20, 03:23:04,VALID,998.728,VALID,0,VALID,92.0971,VALID,0,VALID,22.7452,VALID,42,VALID,0,
2010-10-20, 03:24:04,VALID,998.712,VALID,0,VALID,92.2268,VALID,0,VALID,22.786,VALID,42,VALID,0,
2010-10-20, 03:25:04,VALID,998.73,VALID,0,VALID,92.3489,VALID,0,VALID,22.8037,VALID,42,VALID,0.266406,
2010-10-20, 03:26:04,VALID,998.719,VALID,0,VALID,92.4405,VALID,0,VALID,22.8232,VALID,42,VALID,0.228906,
2010-10-20, 03:27:04,VALID,998.702,VALID,0,VALID,92.5549,VALID,0,VALID,22.8232,VALID,42,VALID,0.153125,
2010-10-20, 03:28:04,VALID,998.694,VALID,0,VALID,92.5778,VALID,0,VALID,22.8427,VALID,168,VALID,0.969531,
2010-10-20, 03:29:04,VALID,998.708,VALID,0,VALID,92.677,VALID,0,VALID,22.9208,VALID,163,VALID,1.11016,
2010-10-20, 03:30:04,VALID,998.674,VALID,0,VALID,92.7228,VALID,0,VALID,22.9793,VALID,163,VALID,0.757422,
2010-10-20, 03:31:04,VALID,998.666,VALID,0,VALID,92.738,VALID,0,VALID,23.0378,VALID,163,VALID,0.597656,
2010-10-20, 03:32:04,VALID,998.679,VALID,0,VALID,92.7228,VALID,0,VALID,23.0769,VALID,163,VALID,0.4375,
2010-10-20, 03:33:04,VALID,998.632,VALID,0,VALID,92.6846,VALID,0,VALID,23.1159,VALID,173,VALID,0.771094,
2010-10-20, 03:34:04,VALID,998.595,VALID,0,VALID,92.6007,VALID,0,VALID,23.1354,VALID,173,VALID,0.221484,
2010-10-20, 03:35:04,VALID,998.608,VALID,0,VALID,92.4557,VALID,0,VALID,23.1354,VALID,173,VALID,0.151562,
2010-10-20, 03:36:04,VALID,998.584,VALID,0,VALID,92.3031,VALID,0,VALID,23.0964,VALID,173,VALID,0.536719,
2010-10-20, 03:37:04,VALID,998.556,VALID,0,VALID,92.1963,VALID,0,VALID,23.1354,VALID,173,VALID,0.850781,
2010-10-20, 03:38:04,VALID,998.583,VALID,0,VALID,92.059,VALID,0,VALID,23.1159,VALID,173,VALID,0.769531,
2010-10-20, 03:39:04,VALID,998.582,VALID,0,VALID,91.9293,VALID,0,VALID,23.1549,VALID,165,VALID,1.1207,
2010-10-20, 03:40:04,VALID,998.599,VALID,0,VALID,91.8683,VALID,0,VALID,23.1744,VALID,163,VALID,0.990625,
2010-10-20, 03:41:04,VALID,998.626,VALID,0,VALID,91.7843,VALID,0,VALID,23.1939,VALID,163,VALID,1.06445,
2010-10-20, 03:42:04,VALID,998.669,VALID,0,VALID,91.6775,VALID,0,VALID,23.2134,VALID,151,VALID,1.21367,
2010-10-20, 03:43:04,VALID,998.663,VALID,0,VALID,91.5326,VALID,0,VALID,23.2134,VALID,158,VALID,1.0875,
2010-10-20, 03:44:04,VALID,998.674,VALID,0,VALID,91.2197,VALID,0,VALID,23.2134,VALID,148,VALID,0.907812,